Wind_Speed
20 20 20 20 20 20 21 20 20 20 20 19 19 19 19 20 20 21 21 21 21 22 23 24 23 23 23 23 23 25 25 26 26 26 26 26 26 27 26 27 26 26 26
19 19 20 20 21 21 21 21 21 20 21 20 20 21 20 20 21 22 23 22 21 22 23 24 24 25 25 24 24 25 25 26 26 26 26 26 27 28 28 28 28 28 27
20 20 20 20 21 21 22 22 21 21 21 21 21 21 22 22 23 23 23 24 24 23 23 24 25 25 25 25 24 25 26 26 26 26 26 26 27 28 30 30 30 29 29
21 21 21 21 21 20 20 20 21 21 21 22 22 22 23 23 23 23 23 24 25 24 24 24 25 26 26 27 26 26 26 27 27 27 27 27 27 28 29 31 31 32 31
20 20 21 21 20 19 19 19 20 20 20 21 22 23 23 23 23 24 24 24 25 25 26 25 25 26 27 28 28 28 29 29 29 29 28 28 29 29 29 30 31 32 33
19 19 19 19 19 18 19 19 19 20 20 21 22 22 23 23 24 24 24 25 25 26 27 27 27 27 28 29 29 30 30 30 30 30 30 30 31 31 31 31 31 31 31
17 17 18 18 19 19 19 19 20 20 21 21 22 23 24 24 24 25 25 26 25 26 26 27 28 28 28 28 29 30 31 31 30 30 31 31 32 31 31 31 31 32 32
16 17 16 17 18 18 18 20 20 21 21 22 22 23 24 25 25 25 26 26 26 27 26 28 29 29 29 29 29 30 30 31 31 30 31 31 31 31 32 32 32 33 34
16 16 16 16 17 18 18 19 20 21 21 22 23 23 24 24 25 25 26 26 27 27 28 27 28 28 28 28 28 29 29 30 31 32 32 32 32 32 33 32 32 33 34
16 15 15 17 18 18 19 19 20 21 21 22 22 23 23 24 25 26 25 25 26 26 27 27 27 28 28 29 29 29 30 30 31 32 33 33 33 34 34 34 34 33 34
15 15 16 17 18 18 19 19 20 21 21 21 21 21 21 22 23 24 24 24 25 26 26 26 28 27 28 29 29 30 31 31 32 32 34 34 34 34 35 35 35 35 35
14 15 16 16 17 18 18 19 19 20 20 20 20 20 20 20 20 21 22 23 25 26 26 26 27 27 28 29 30 30 31 32 33 34 34 34 34 34 34 35 35 36 36
15 15 15 16 17 17 17 17 18 18 19 19 19 19 20 20 20 21 22 23 24 25 25 26 27 28 28 29 29 29 30 31 33 34 34 35 35 35 35 35 36 36 36
15 15 15 15 15 15 16 17 17 18 18 19 19 19 20 20 21 21 22 22 22 22 23 25 27 27 28 29 29 28 28 29 31 33 34 35 35 36 36 36 36 36 36
15 15 14 13 13 15 16 16 17 18 19 19 19 20 21 21 21 21 21 21 21 22 23 24 25 27 27 28 28 28 29 29 30 31 32 33 35 35 36 36 36 37 37
14 14 13 13 14 15 16 16 17 18 18 18 19 19 19 19 20 20 20 21 22 22 23 23 24 26 26 28 28 28 29 28 29 30 32 33 33 34 35 36 36 36 37
14 14 13 14 14 15 16 16 16 16 16 17 18 18 18 18 18 19 19 20 21 23 23 23 23 24 25 26 27 27 28 28 28 29 30 31 32 33 34 35 35 36 37
14 13 13 13 14 15 15 16 16 15 15 16 16 17 17 17 17 18 19 19 20 21 21 22 23 23 24 25 26 27 28 28 29 29 30 31 32 33 34 35 36 37 38
13 13 13 13 14 14 15 15 15 15 15 15 15 15 16 16 16 17 18 18 20 20 20 21 22 24 24 26 27 28 28 28 29 29 30 31 32 33 34 35 36 37 38
13 13 13 13 13 13 13 13 14 14 13 14 15 15 15 16 17 18 17 18 19 20 21 22 22 23 24 25 26 27 27 28 29 30 30 31 33 34 34 35 36 37 38
12 13 13 13 13 13 13 13 13 13 13 13 14 14 15 17 18 18 18 19 20 21 21 22 22 22 23 24 25 26 27 28 29 30 31 33 34 34 35 35 36 37 38
13 13 13 13 13 13 13 14 14 15 15 15 15 15 16 17 18 19 19 19 20 20 21 21 22 21 22 23 24 25 26 28 29 30 31 32 34 35 35 36 35 36 37
13 13 13 13 13 13 14 14 15 16 16 16 16 17 18 19 19 20 20 21 20 21 22 22 22 22 22 23 24 24 25 27 28 29 30 31 32 33 33 34 34 34 35
13 13 13 14 14 14 14 15 15 16 16 16 17 18 19 20 21 21 21 22 22 22 22 22 22 22 22 23 23 24 25 26 27 28 29 30 32 32 33 33 33 33 34
13 14 14 14 14 14 14 15 15 15 16 16 18 19 20 21 21 22 22 22 22 23 23 23 23 23 23 23 24 25 25 25 26 27 28 30 31 32 33 33 34 34 35
14 14 14 14 14 14 15 15 15 16 17 17 18 20 20 21 21 21 22 23 23 24 24 24 23 23 23 24 24 24 25 25 26 26 26 28 29 31 32 33 34 35 35
Wind_Direction
279 277 277 276 275 274 274 274 274 274 275 274 270 267 265 263 262 261 261 260 259 257 256 255 255 254 254 254 254 253 251 249 246 244 244 243 242 240 240 240 239 239 240
277 276 274 274 275 274 274 273 272 272 272 271 269 266 265 263 264 263 260 260 261 260 258 256 256 255 255 254 253 254 253 251 250 245 244 243 242 241 241 241 239 239 240
279 277 274 274 276 275 273 272 270 270 271 272 269 267 266 266 265 267 264 262 262 262 261 258 257 256 254 253 253 254 254 252 250 247 246 245 244 243 242 241 240 240 240
278 276 274 274 276 275 273 271 268 269 271 271 270 268 268 268 268 267 266 264 262 263 261 259 258 257 256 254 253 253 253 251 250 249 249 247 245 245 244 243 242 241 240
278 275 273 272 273 272 272 270 268 270 271 271 270 270 270 270 270 269 267 266 264 262 260 260 259 259 257 254 254 254 253 252 251 250 251 250 248 246 246 244 244 243 241
279 275 273 270 269 270 270 270 269 271 272 270 271 272 272 272 270 268 267 267 264 263 261 260 258 258 257 256 255 255 254 251 252 252 252 252 250 248 246 244 245 244 243
281 275 275 271 270 270 271 272 271 272 272 273 273 274 274 274 273 268 268 266 265 264 263 259 258 258 258 258 257 255 253 252 253 252 252 252 252 250 247 245 245 246 244
284 279 277 273 272 273 275 275 274 275 275 275 276 276 276 274 275 272 270 267 266 264 263 262 260 260 259 258 257 255 255 253 252 252 251 251 251 251 249 248 247 247 246
289 282 277 276 275 275 276 275 275 276 277 277 276 276 276 274 275 273 270 268 267 266 267 265 262 260 260 258 258 257 256 254 252 252 251 251 250 250 250 250 249 249 249
288 283 281 279 277 276 277 277 276 277 278 278 277 275 276 276 275 273 270 267 266 266 267 266 264 262 260 259 258 257 255 254 252 252 252 251 251 251 252 252 251 250 250
288 283 282 280 279 279 279 279 280 279 281 279 279 278 278 278 278 276 271 268 267 267 268 268 266 264 262 260 258 257 256 254 253 253 253 252 253 253 253 252 251 250 250
290 289 285 282 283 282 282 284 285 283 282 280 280 280 280 281 282 281 277 273 271 269 269 268 266 265 263 261 260 258 258 256 254 254 255 254 253 253 252 252 252 250 249
298 297 293 289 285 284 286 288 287 287 284 281 281 281 282 284 286 285 280 278 275 273 273 271 268 267 266 263 261 260 260 258 256 255 254 254 253 252 252 252 253 253 250
300 300 298 294 288 286 286 287 288 287 286 284 282 283 285 287 287 286 283 280 276 274 274 273 271 269 267 264 263 262 262 261 260 258 256 254 252 252 252 252 252 252 250
302 301 298 293 288 287 288 289 288 289 288 288 288 288 288 288 289 289 287 283 281 279 278 275 274 271 267 263 261 264 263 262 261 261 259 257 255 253 252 251 251 251 250
306 304 299 293 290 291 293 293 293 293 291 291 292 292 290 290 289 287 286 286 286 284 282 280 276 273 267 265 263 263 264 266 263 262 261 259 257 254 252 252 251 251 251
311 310 307 300 297 296 295 294 296 296 295 296 295 294 292 291 290 290 289 290 290 287 284 281 278 274 270 268 266 267 267 268 266 264 262 260 259 256 254 253 252 252 253
314 314 312 306 303 300 299 300 301 301 298 300 301 300 298 296 295 294 293 293 294 293 288 282 278 279 277 273 272 271 270 268 267 265 263 261 260 258 255 254 253 252 253
312 313 313 310 309 305 303 306 306 304 304 305 305 305 304 304 302 302 301 299 298 297 294 289 284 282 279 276 273 273 271 270 268 266 265 262 261 259 257 255 254 253 253
310 312 314 312 313 312 308 307 309 310 310 311 310 310 310 310 307 305 303 303 303 302 299 293 288 283 281 279 275 273 272 270 269 268 266 264 261 260 258 257 255 254 253
310 313 316 313 313 314 312 311 311 312 312 312 312 310 311 313 312 309 305 304 304 304 301 297 292 288 286 282 279 276 274 273 272 270 268 266 263 261 259 258 256 255 254
307 312 315 315 314 313 313 312 313 313 312 312 312 311 311 312 312 311 310 309 308 307 303 298 296 292 289 286 283 280 278 276 275 273 272 269 265 262 260 259 257 255 254
306 308 311 313 314 313 312 312 313 312 312 311 311 310 309 310 310 311 311 310 308 307 305 301 298 294 291 288 285 283 281 279 278 278 275 272 268 265 263 262 259 256 255
302 304 308 310 310 312 312 311 309 309 310 312 312 311 311 310 311 310 310 310 309 306 304 303 300 296 293 290 287 285 283 282 282 281 277 272 269 266 263 262 260 258 257
301 302 304 305 307 313 315 314 312 312 311 310 310 311 312 314 315 313 311 311 309 307 305 304 302 298 296 294 291 288 286 286 287 285 280 275 271 267 264 261 259 259 258
303 304 304 303 303 308 312 314 312 313 313 312 311 312 314 315 316 316 314 312 311 310 307 305 303 300 298 295 291 290 289 289 290 289 285 280 275 268 264 261 260 259 257
Height
5826 5825 5824 5824 5823 5823 5822 5822 5822 5822 5822 5822 5821 5822 5822 5822 5822 5823 5823 5824 5825 5826 5827 5828 5829 5830 5831 5832 5833 5834 5835 5837 5838 5840 5841 5844 5845 5848 5850 5852 5854 5856 5858
5820 5820 5819 5819 5818 5818 5817 5817 5817 5817 5817 5816 5816 5817 5817 5817 5817 5817 5818 5819 5820 5820 5821 5822 5823 5824 5825 5826 5827 5828 5829 5831 5832 5834 5835 5838 5840 5842 5844 5846 5848 5850 5852
5815 5814 5814 5813 5813 5812 5812 5812 5812 5812 5811 5811 5811 5811 5811 5812 5812 5812 5812 5813 5814 5814 5815 5816 5817 5818 5819 5820 5821 5822 5824 5825 5826 5828 5829 5831 5833 5836 5838 5840 5842 5844 5847
5809 5809 5808 5808 5807 5807 5806 5806 5806 5806 5806 5806 5805 5805 5806 5806 5807 5807 5807 5808 5808 5809 5809 5810 5810 5812 5812 5813 5815 5816 5817 5819 5820 5821 5823 5825 5827 5829 5831 5833 5836 5838 5840
5803 5803 5803 5803 5802 5802 5801 5801 5801 5801 5801 5800 5800 5800 5800 5800 5801 5801 5801 5802 5802 5802 5803 5804 5804 5805 5806 5807 5808 5809 5811 5812 5813 5814 5816 5818 5820 5822 5824 5826 5829 5831 5834
5798 5797 5797 5797 5797 5797 5797 5796 5796 5796 5795 5795 5794 5794 5794 5794 5794 5795 5795 5795 5795 5796 5796 5797 5798 5798 5799 5800 5801 5802 5803 5804 5805 5807 5809 5811 5813 5815 5817 5820 5822 5824 5826
5793 5793 5792 5792 5792 5792 5792 5792 5791 5791 5790 5790 5789 5789 5788 5788 5788 5788 5788 5788 5789 5789 5789 5790 5790 5791 5791 5792 5793 5794 5795 5796 5798 5800 5802 5804 5806 5807 5810 5812 5814 5817 5819
5789 5788 5788 5788 5788 5787 5787 5787 5786 5786 5785 5784 5783 5783 5782 5782 5781 5781 5781 5781 5781 5781 5782 5782 5782 5783 5783 5784 5785 5786 5787 5788 5790 5792 5794 5796 5798 5800 5802 5804 5806 5809 5811
5785 5784 5784 5783 5783 5783 5782 5782 5781 5780 5779 5778 5777 5777 5776 5775 5774 5774 5773 5773 5773 5773 5773 5773 5774 5774 5775 5776 5777 5778 5779 5780 5782 5784 5786 5788 5790 5792 5794 5796 5798 5800 5802
5782 5780 5780 5779 5779 5778 5777 5777 5776 5775 5774 5773 5771 5770 5770 5768 5767 5767 5766 5765 5765 5765 5765 5765 5765 5766 5766 5767 5768 5770 5771 5772 5774 5775 5778 5780 5782 5783 5785 5787 5789 5791 5793
5778 5776 5775 5775 5774 5773 5772 5771 5770 5769 5768 5767 5765 5764 5763 5762 5760 5759 5759 5758 5758 5758 5758 5758 5757 5758 5758 5759 5760 5761 5762 5764 5765 5767 5769 5771 5772 5774 5776 5778 5780 5782 5784
5774 5772 5771 5770 5769 5768 5767 5766 5764 5763 5762 5761 5760 5758 5757 5756 5754 5753 5752 5751 5751 5750 5750 5750 5750 5750 5750 5751 5752 5752 5753 5755 5756 5757 5759 5761 5762 5764 5766 5768 5770 5773 5775
5770 5769 5767 5766 5764 5763 5762 5761 5759 5757 5756 5755 5754 5752 5751 5750 5748 5746 5745 5744 5743 5743 5742 5742 5742 5742 5741 5742 5742 5743 5744 5745 5746 5748 5749 5750 5752 5754 5756 5758 5760 5762 5765
5767 5764 5763 5761 5760 5759 5757 5756 5754 5752 5751 5749 5748 5746 5745 5743 5741 5739 5738 5737 5736 5735 5734 5734 5733 5733 5733 5733 5733 5734 5734 5736 5736 5737 5738 5740 5741 5743 5746 5748 5750 5752 5755
5763 5761 5759 5757 5756 5754 5752 5750 5749 5747 5745 5743 5742 5740 5738 5737 5735 5733 5731 5730 5729 5728 5728 5727 5726 5725 5724 5724 5724 5725 5726 5726 5727 5728 5728 5729 5731 5733 5735 5737 5740 5742 5744
5759 5757 5755 5753 5752 5750 5748 5745 5743 5742 5740 5738 5736 5734 5732 5731 5729 5727 5725 5723 5722 5721 5720 5719 5718 5717 5716 5716 5716 5716 5717 5717 5717 5718 5719 5719 5721 5723 5724 5727 5729 5732 5734
5756 5753 5751 5749 5747 5745 5743 5741 5738 5736 5734 5733 5731 5729 5727 5725 5723 5721 5719 5718 5716 5714 5713 5712 5711 5709 5708 5708 5708 5708 5708 5708 5709 5709 5709 5710 5711 5712 5714 5716 5719 5721 5723
5752 5750 5747 5745 5743 5740 5738 5736 5734 5731 5730 5728 5726 5724 5721 5719 5717 5716 5714 5712 5710 5708 5706 5705 5703 5702 5701 5700 5699 5699 5699 5699 5699 5700 5700 5701 5702 5703 5704 5706 5708 5710 5712
5749 5747 5744 5741 5739 5736 5734 5731 5729 5727 5725 5723 5721 5719 5717 5714 5712 5710 5708 5706 5704 5702 5700 5698 5696 5695 5693 5692 5692 5691 5690 5690 5690 5691 5691 5692 5692 5693 5695 5696 5698 5700 5702
5746 5743 5741 5738 5735 5733 5730 5728 5726 5724 5722 5719 5717 5715 5712 5710 5708 5706 5703 5701 5699 5696 5694 5692 5690 5688 5686 5685 5684 5683 5682 5682 5682 5681 5682 5682 5683 5684 5685 5686 5688 5689 5691
5743 5740 5738 5735 5732 5729 5727 5725 5723 5720 5718 5716 5713 5711 5708 5706 5703 5701 5699 5696 5693 5690 5687 5685 5683 5681 5679 5677 5676 5675 5674 5673 5673 5672 5672 5672 5673 5674 5675 5675 5677 5678 5679
5740 5737 5735 5732 5729 5726 5724 5722 5719 5717 5715 5712 5710 5707 5704 5702 5699 5696 5693 5690 5688 5685 5682 5679 5676 5674 5672 5670 5669 5667 5666 5665 5664 5664 5662 5662 5662 5663 5664 5664 5666 5667 5668
5736 5734 5732 5729 5726 5724 5721 5718 5716 5713 5711 5708 5706 5703 5700 5697 5694 5691 5688 5685 5682 5679 5676 5673 5670 5667 5665 5663 5661 5659 5657 5656 5655 5654 5652 5652 5652 5652 5652 5653 5654 5656 5657
5733 5731 5729 5726 5724 5721 5718 5715 5712 5709 5707 5704 5702 5699 5696 5693 5689 5686 5683 5680 5677 5673 5670 5667 5664 5661 5658 5655 5653 5651 5649 5647 5645 5644 5642 5642 5641 5641 5641 5642 5643 5645 5646
5729 5727 5725 5723 5720 5718 5715 5712 5709 5706 5703 5700 5698 5695 5691 5688 5684 5680 5677 5674 5670 5667 5663 5660 5657 5653 5650 5648 5645 5643 5641 5639 5636 5634 5633 5631 5631 5630 5631 5631 5632 5634 5635
5726 5724 5722 5719 5717 5714 5711 5708 5705 5702 5699 5696 5693 5690 5686 5683 5679 5675 5671 5668 5664 5660 5656 5652 5649 5646 5643 5640 5637 5634 5632 5630 5628 5625 5623 5622 5620 5619 5620 5621 5621 5622 5624